This is the latest recevied weather packets stored in our database for station/object WX4SGA. If no packets are shown the sender has not sent any weather packets the latest 10 day(s).
| Time | Temp. | Humidity | Pressure | Rain* | Wind** | Luminosity | Snow |
|---|---|---|---|---|---|---|---|
| 1788560078 | 25.56° C | 94% | 1015.2 hPa | 0 mm | - | 20 W/m² | - |
| 1788559774 | 26.11° C | 93% | 1015.2 hPa | 0 mm | - | 26 W/m² | - |
| 1788559473 | 26.11° C | 93% | 1015.2 hPa | 0 mm | - | 33 W/m² | - |
| 1788559169 | 26.11° C | 92% | 1015.2 hPa | 0 mm | - | 36 W/m² | - |
| 1788558864 | 26.11° C | 91% | 1015.2 hPa | 0 mm | - | 35 W/m² | - |
| 1788558560 | 26.67° C | 91% | 1015.2 hPa | 0 mm | - | 32 W/m² | - |
| 1788558255 | 26.67° C | 89% | 1015.2 hPa | 0 mm | - | 39 W/m² | - |
| 1788557955 | 26.67° C | 88% | 1015.2 hPa | 0 mm | - | 48 W/m² | - |
| 1788557649 | 27.22° C | 87% | 1014.9 hPa | 0 mm | - | 60 W/m² | - |
| 1788557345 | 27.22° C | 86% | 1014.9 hPa | 0 mm | - | 85 W/m² | - |
| 1788557044 | 27.78° C | 84% | 1014.9 hPa | 0 mm | - | 117 W/m² | - |
| 1788556734 | 29.44° C | 80% | 1014.9 hPa | 0 mm | - | 68 W/m² | - |
| 1788556429 | 31.11° C | 78% | 1014.6 hPa | 0 mm | - | 81 W/m² | - |
| 1788556124 | 31.67° C | 73% | 1014.6 hPa | 0 mm | - | 164 W/m² | - |
| 1788555818 | 31.11° C | 73% | 1014.6 hPa | 0 mm | - | 178 W/m² | - |
| 1788555514 | 31.11° C | 71% | 1014.2 hPa | 0 mm | - | 184 W/m² | - |
| 1788555210 | 31.67° C | 72% | 1014.6 hPa | 0 mm | - | 181 W/m² | - |
| 1788554907 | 31.11° C | 71% | 1014.2 hPa | 0 mm | - | 201 W/m² | - |
| 1788554602 | 31.67° C | 70% | 1014.6 hPa | 0 mm | - | 197 W/m² | - |
| 1788554298 | 31.67° C | 70% | 1014.6 hPa | 0 mm | - | 286 W/m² | - |
| 1788553994 | 31.67° C | 71% | 1014.6 hPa | 0 mm | - | 291 W/m² | - |
| 1788553690 | 31.67° C | 71% | 1014.6 hPa | 0 mm | - | 275 W/m² | - |
| 1788553386 | 31.11° C | 70% | 1014.6 hPa | 0 mm | - | 234 W/m² | - |
| 1788553082 | 31.67° C | 72% | 1014.6 hPa | 0 mm | - | 205 W/m² | - |
| 1788552781 | 31.67° C | 71% | 1014.6 hPa | 0 mm | - | 280 W/m² | - |
* Rain latest hour (hover to see other rain measurements)
** Current wind speed in m/s (hover to see current wind gust speed)